This is the latest recevied weather packets stored in our database for station/object W4IFI. If no packets are shown the sender has not sent any weather packets the latest 10 day(s).
| Time | Temp. | Humidity | Pressure | Rain* | Wind** | Luminosity | Snow |
|---|---|---|---|---|---|---|---|
| 1776991803 | 10.56° C | 24% | 1012.2 hPa | 0 mm | - | - | - |
| 1776991337 | 10.56° C | 23% | 1012.2 hPa | 0 mm | - | - | - |
| 1776989403 | 11.11° C | 23% | 1012.2 hPa | 0 mm | - | - | - |
| 1776987003 | 11.11° C | 23% | 1012.1 hPa | 0 mm | - | - | - |
| 1776984303 | 11.11° C | 24% | 1011.9 hPa | 0 mm | - | - | - |
| 1776983403 | 11.11° C | 23% | 1012 hPa | 0 mm | - | - | - |
| 1776981303 | 11.67° C | 23% | 1011.8 hPa | 0 mm | - | - | - |
| 1776974703 | 10.56° C | 25% | 1012.5 hPa | 0 mm | - | - | - |
| 1776973203 | 10° C | 24% | 1012.5 hPa | 0 mm | - | - | - |
| 1776972303 | 10° C | 25% | 1012.8 hPa | 0 mm | - | - | - |
| 1776972003 | 9.44° C | 25% | 1012.9 hPa | 0 mm | - | - | - |
| 1776970203 | 10° C | 25% | 1013.1 hPa | 0 mm | - | - | - |
| 1776969903 | 10° C | 24% | 1013.1 hPa | 0 mm | - | - | - |
| 1776968537 | 9.44° C | 26% | 1013.2 hPa | 0 mm | - | - | - |
| 1776964803 | 8.89° C | 28% | 1013.4 hPa | 0 mm | - | - | - |
| 1776964037 | 8.89° C | 28% | 1013.4 hPa | 0 mm | - | - | - |
| 1776959104 | 7.78° C | 29% | 1012.6 hPa | 0 mm | - | - | - |
| 1776958803 | 7.78° C | 28% | 1012.7 hPa | 0 mm | - | - | - |
| 1776956103 | 7.78° C | 30% | 1012.6 hPa | 0 mm | - | - | - |
| 1776954903 | 7.22° C | 30% | 1012.7 hPa | 0 mm | - | - | - |
| 1776954603 | 6.67° C | 30% | 1012.6 hPa | 0 mm | - | - | - |
| 1776953403 | 6.11° C | 32% | 1012.6 hPa | 0 mm | - | - | - |
| 1776951137 | 4.44° C | 36% | 1012.2 hPa | 0 mm | - | - | - |
| 1776950403 | 3.33° C | 36% | 1012.1 hPa | 0 mm | - | - | - |
| 1776950238 | 3.33° C | 36% | 1012.1 hPa | 0 mm | - | - | - |
* Rain latest hour (hover to see other rain measurements)
** Current wind speed in m/s (hover to see current wind gust speed)